Location: Le Vaud
(46.4779°N, 6.2346°E)
Time: 23:44:35
(UTC+00:00)

Cosmos 1727 Rocket - Pass Details

Date: 18 February 2020
Orbit: 962 x 995 km, 82.9° (Epoch: 09 April)

Event Time Altitude Azimuth Distance (km) Brightness Sun altitude
Rises 04:56:39 0° 199° (SSW) 3,649 6.8 -17.5°
Reaches altitude 10° 04:59:12 10° 203° (SSW) 2,703 6.1 -17.1°
Maximum altitude 05:05:17 59° 282° (WNW) 1,110 4.0 -16.0°
Drops below altitude 10° 05:11:24 10° 2° (N) 2,709 6.3 -15.0°
Sets 05:13:58 0° 6° (N) 3,659 7.1 -14.6°
